EN

Hourly Weather Kyzylkiya

Today, 25 July, Sunday

Time Temperature Precipitation Wind Pressure Humidity
00:00 +31°C° 0 mm 3 mps 709 mmHg 15%
01:00 +30°C° 0 mm 3 mps 709 mmHg 15%
02:00 +30°C° 0 mm 3 mps 709 mmHg 15%
03:00 +30°C° 0 mm 3 mps 709 mmHg 16%
04:00 +30°C° 0 mm 3 mps 709 mmHg 16%
05:00 +29°C° 0 mm 3 mps 709 mmHg 17%
06:00 +32°C° 0 mm 2 mps 709 mmHg 15%
07:00 +35°C° 0 mm 1 mps 710 mmHg 13%
08:00 +35°C° 0 mm 0 mps 710 mmHg 11%
09:00 +40°C° 0 mm 1 mps 710 mmHg 10%
10:00 +42°C° 0 mm 2 mps 710 mmHg 9%
11:00 +44°C° 0 mm 3 mps 710 mmHg 8%
12:00 +45°C° 0 mm 4 mps 710 mmHg 7%
13:00 +47°C° 0 mm 4 mps 710 mmHg 7%
14:00 +48°C° 0 mm 4 mps 709 mmHg 6%
15:00 +48°C° 0 mm 5 mps 709 mmHg 6%
16:00 +48°C° 0 mm 5 mps 709 mmHg 6%
17:00 +47°C° 0 mm 5 mps 709 mmHg 6%
18:00 +44°C° 0 mm 4 mps 708 mmHg 7%
19:00 +41°C° 0 mm 4 mps 708 mmHg 8%
20:00 +38°C° 0 mm 3 mps 708 mmHg 9%
21:00 +37°C° 0 mm 3 mps 708 mmHg 10%
22:00 +36°C° 0 mm 4 mps 708 mmHg 12%
23:00 +35°C° 0 mm 4 mps 708 mmHg 13%

Tomorrow, 26 July, Monday

Time Temperature Precipitation Wind Pressure Humidity
00:00 +34°C° 0 mm 4 mps 707 mmHg 14%
01:00 +33°C° 0 mm 3 mps 707 mmHg 15%
02:00 +31°C° 0 mm 3 mps 707 mmHg 15%
03:00 +31°C° 0 mm 3 mps 707 mmHg 16%
04:00 +30°C° 0 mm 3 mps 707 mmHg 17%
05:00 +30°C° 0 mm 3 mps 707 mmHg 18%
06:00 +33°C° 0 mm 3 mps 708 mmHg 16%
07:00 +35°C° 0 mm 2 mps 708 mmHg 13%
08:00 +38°C° 0 mm 2 mps 709 mmHg 11%
09:00 +41°C° 0 mm 4 mps 709 mmHg 10%
10:00 +43°C° 0 mm 5 mps 709 mmHg 9%
11:00 +46°C° 0 mm 6 mps 709 mmHg 8%
12:00 +47°C° 0 mm 6 mps 708 mmHg 8%
13:00 +49°C° 0 mm 7 mps 708 mmHg 7%
14:00 +50°C° 0 mm 7 mps 708 mmHg 7%
15:00 +49°C° 0 mm 7 mps 707 mmHg 7%
16:00 +49°C° 0 mm 8 mps 707 mmHg 7%
17:00 +48°C° 0 mm 8 mps 707 mmHg 8%
18:00 +45°C° 0 mm 8 mps 707 mmHg 10%
19:00 +43°C° 0 mm 8 mps 707 mmHg 13%
20:00 +40°C° 0 mm 8 mps 707 mmHg 16%
21:00 +38°C° 0 mm 7 mps 707 mmHg 19%
22:00 +36°C° 0 mm 7 mps 707 mmHg 21%
23:00 +34°C° 0 mm 7 mps 707 mmHg 24%

Day after tomorrow, 27 July, Tuesday

Time Temperature Precipitation Wind Pressure Humidity
00:00 +33°C° 0 mm 7 mps 706 mmHg 25%
01:00 +33°C° 0 mm 7 mps 706 mmHg 25%
02:00 +32°C° 0 mm 6 mps 706 mmHg 26%
03:00 +30°C° 0 mm 5 mps 706 mmHg 27%
04:00 +29°C° 0 mm 5 mps 706 mmHg 28%
05:00 +28°C° 0 mm 4 mps 707 mmHg 29%
06:00 +29°C° 0 mm 3 mps 707 mmHg 28%
07:00 +31°C° 0 mm 3 mps 707 mmHg 26%
08:00 +34°C° 0 mm 3 mps 708 mmHg 24%
09:00 +35°C° 0 mm 3 mps 708 mmHg 22%
10:00 +37°C° 0 mm 4 mps 708 mmHg 20%
11:00 +40°C° 0 mm 4 mps 708 mmHg 17%
12:00 +41°C° 0 mm 5 mps 707 mmHg 16%
13:00 +42°C° 0 mm 6 mps 707 mmHg 16%
14:00 +44°C° 0 mm 7 mps 706 mmHg 15%
15:00 +44°C° 0 mm 7 mps 706 mmHg 15%
16:00 +44°C° 0 mm 8 mps 706 mmHg 16%
17:00 +43°C° 0 mm 8 mps 705 mmHg 16%
18:00 +40°C° 0 mm 8 mps 705 mmHg 19%
19:00 +38°C° 0 mm 8 mps 705 mmHg 23%
20:00 +35°C° 0 mm 8 mps 705 mmHg 26%
21:00 +34°C° 0 mm 7 mps 705 mmHg 28%
22:00 +32°C° 0 mm 6 mps 705 mmHg 29%
23:00 +30°C° 0 mm 5 mps 705 mmHg 31%

28 July, Wednesday

Time Temperature Precipitation Wind Pressure Humidity
00:00 +29°C° 0 mm 4 mps 705 mmHg 32%
01:00 +28°C° 0 mm 4 mps 705 mmHg 33%
02:00 +27°C° 0 mm 3 mps 705 mmHg 34%
03:00 +26°C° 0 mm 3 mps 705 mmHg 35%
04:00 +25°C° 0 mm 2 mps 705 mmHg 37%
05:00 +25°C° 0 mm 2 mps 705 mmHg 38%
06:00 +26°C° 0 mm 3 mps 705 mmHg 34%
07:00 +28°C° 0 mm 3 mps 706 mmHg 31%
08:00 +30°C° 0 mm 3 mps 706 mmHg 27%
09:00 +33°C° 0 mm 3 mps 706 mmHg 24%
10:00 +34°C° 0 mm 3 mps 706 mmHg 21%
11:00 +36°C° 0 mm 3 mps 706 mmHg 19%
12:00 +37°C° 0 mm 3 mps 706 mmHg 17%
13:00 +39°C° 0 mm 3 mps 706 mmHg 15%
14:00 +40°C° 0 mm 3 mps 706 mmHg 13%
15:00 +40°C° 0 mm 3 mps 705 mmHg 13%
16:00 +42°C° 0 mm 3 mps 705 mmHg 12%
17:00 +42°C° 0 mm 3 mps 705 mmHg 11%
18:00 +40°C° 0 mm 4 mps 705 mmHg 13%
19:00 +37°C° 0 mm 4 mps 705 mmHg 16%
20:00 +34°C° 0 mm 4 mps 705 mmHg 18%
21:00 +33°C° 0 mm 4 mps 705 mmHg 20%
22:00 +30°C° 0 mm 3 mps 705 mmHg 22%
23:00 +29°C° 0 mm 2 mps 705 mmHg 24%

29 July, Thursday

Time Temperature Precipitation Wind Pressure Humidity
00:00 +28°C° 0 mm 2 mps 705 mmHg 25%
01:00 +28°C° 0 mm 2 mps 705 mmHg 25%
02:00 +27°C° 0 mm 1 mps 705 mmHg 26%
03:00 +26°C° 0 mm 2 mps 705 mmHg 27%
04:00 +25°C° 0 mm 2 mps 705 mmHg 27%
05:00 +25°C° 0 mm 2 mps 706 mmHg 28%
06:00 +26°C° 0 mm 3 mps 706 mmHg 25%
07:00 +28°C° 0 mm 4 mps 707 mmHg 23%
08:00 +30°C° 0 mm 4 mps 707 mmHg 20%
09:00 +33°C° 0 mm 4 mps 707 mmHg 18%
10:00 +34°C° 0 mm 4 mps 708 mmHg 17%
11:00 +36°C° 0 mm 3 mps 708 mmHg 15%
12:00 +37°C° 0 mm 4 mps 708 mmHg 14%
13:00 +38°C° 0 mm 4 mps 707 mmHg 12%
14:00 +41°C° 0 mm 4 mps 707 mmHg 10%
15:00 +40°C° 0 mm 4 mps 707 mmHg 10%
16:00 +40°C° 0 mm 5 mps 707 mmHg 10%
17:00 +40°C° 0 mm 5 mps 707 mmHg 9%
18:00 +37°C° 0 mm 5 mps 707 mmHg 12%
19:00 +34°C° 0 mm 4 mps 707 mmHg 14%
20:00 +31°C° 0 mm 3 mps 707 mmHg 16%
21:00 +30°C° 0 mm 3 mps 707 mmHg 16%
22:00 +29°C° 0 mm 2 mps 707 mmHg 17%
23:00 +28°C° 0 mm 2 mps 707 mmHg 18%

30 July, Friday

Time Temperature Precipitation Wind Pressure Humidity
00:00 +27°C° 0 mm 2 mps 707 mmHg 19%
01:00 +27°C° 0 mm 1 mps 707 mmHg 20%
02:00 +26°C° 0 mm 1 mps 707 mmHg 21%
03:00 +26°C° 0 mm 1 mps 707 mmHg 21%
04:00 +26°C° 0 mm 1 mps 708 mmHg 21%
05:00 +26°C° 0 mm 1 mps 708 mmHg 21%
06:00 +27°C° 0 mm 1 mps 708 mmHg 20%
07:00 +28°C° 0 mm 2 mps 709 mmHg 20%
08:00 +29°C° 0 mm 2 mps 709 mmHg 19%
09:00 +29°C° 0 mm 2 mps 709 mmHg 20%
10:00 +30°C° 0 mm 2 mps 710 mmHg 20%
11:00 +30°C° 0 mm 1 mps 710 mmHg 21%
12:00 +30°C° 0 mm 2 mps 710 mmHg 24%
13:00 +29°C° 0 mm 3 mps 710 mmHg 28%
14:00 +29°C° 0 mm 4 mps 711 mmHg 32%
15:00 +30°C° 0 mm 3 mps 710 mmHg 29%
16:00 +31°C° 0 mm 3 mps 710 mmHg 27%
17:00 +32°C° 0 mm 2 mps 710 mmHg 25%
18:00 +31°C° 0 mm 2 mps 710 mmHg 28%
19:00 +29°C° 0 mm 2 mps 710 mmHg 31%
20:00 +27°C° 0 mm 1 mps 710 mmHg 34%
21:00 +27°C° 0 mm 1 mps 711 mmHg 37%
22:00 +26°C° 0 mm 2 mps 711 mmHg 39%
23:00 +25°C° 0 mm 2 mps 711 mmHg 42%
Show more